Grand Junction, CO

2:00 PM MDT on October 22, 2019 (GMT -0600)
Walker

Weather History for KGJT - May, 2019

Change the Weather History Date:

Tuesday, May 21, 2019

  Actual Average Record
Temperature  
Mean Temperature 53 °F 63 °F  
Max Temperature 63 °F 78 °F 92 °F (2005)
Min Temperature 42 °F 48 °F 33 °F (1974)
Degree Days  
Heating Degree Days 12 4  
Month to date heating degree days 181 128  
Since 1 July heating degree days 5578 5562  
Cooling Degree Days 0 2  
Month to date cooling degree days 11 22  
Year to date cooling degree days 12 25  
Growing Degree Days 2 (Base 50)    
Moisture  
Dew Point 37 °F    
Average Humidity 60    
Maximum Humidity 89    
Minimum Humidity 30    
Precipitation  
Precipitation 0.01 in 0.02 in 0.29 in (1959)
Month to date precipitation 0.22 0.63  
Year to date precipitation 5.27 3.58  
Snow  
Snow 0.00 in 0.00 in 0.00 in (2002)
Month to date snowfall 0.0 0.1  
Since 1 July snowfall 17.4 19.1  
Snow Depth 0.00 in    
Sea Level Pressure  
Sea Level Pressure 29.53 in    
Wind  
Wind Speed 5 mph (SSE)    
Max Wind Speed 29 mph    
Max Gust Speed 38 mph    
Visibility 10 miles    
Events Rain , Thunderstorm    
T = Trace of Precipitation, MM = Missing Value Source: NWS Daily Summary

Daily Weather History Graph

Daily Weather History Graph

Search for Another Location

Airport or City:

Astronomy

May. 21, 2019 Rise Set
Actual Time 5:56 AM MDT 8:25 PM MDT
Civil Twilight 5:25 AM MDT 8:56 PM MDT
Nautical Twilight 4:47 AM MDT 9:34 PM MDT
Astronomical Twilight 4:05 AM MDT 10:16 PM MDT
Moon 11:23 PM MDT (5/21) 8:15 AM MDT (5/21)
Length of Visible Light 15h 30m
Length of Day
14h 29m
Waning Gibbous, 91% of the Moon is Illuminated
May 21
Waning Gibbous
May 26
Last Quarter
Jun 3
New
Jun 10
First Quarter
Jun 17
Full

Hourly Weather History & Observations

Time (MDT) Temp. Windchill Dew Point Humidity Pressure Visibility Wind Dir Wind Speed Gust Speed Precip Events Conditions
12:53 AM 43.0 °F 41.3 °F 37.9 °F 82% 29.63 in 10.0 mi South 3.5 mph - 0.00 in Rain Light Rain
1:53 AM 43.0 °F 40.3 °F 39.0 °F 86% 29.60 in 10.0 mi ENE 4.6 mph - 0.01 in   Overcast
2:53 AM 43.0 °F 40.3 °F 39.0 °F 86% 29.60 in 10.0 mi East 4.6 mph - N/A   Overcast
3:53 AM 43.0 °F 39.5 °F 39.0 °F 86% 29.60 in 10.0 mi ESE 5.8 mph - N/A   Overcast
4:53 AM 42.1 °F - 39.0 °F 89% 29.59 in 10.0 mi Calm Calm - N/A   Overcast
5:53 AM 43.0 °F 41.3 °F 39.0 °F 86% 29.58 in 10.0 mi East 3.5 mph - 0.00 in Rain Light Rain
6:53 AM 42.1 °F 40.2 °F 39.9 °F 92% 29.60 in 10.0 mi NNE 3.5 mph - 0.00 in   Overcast
7:53 AM 44.1 °F - 39.0 °F 82% 29.60 in 10.0 mi Calm Calm - 0.00 in   Mostly Cloudy
8:10 AM 44.1 °F - 37.9 °F 79% 29.68 in 10.0 mi Calm Calm - N/A   Mostly Cloudy
8:53 AM 45.0 °F - 37.9 °F 76% 29.60 in 10.0 mi Calm Calm - N/A   Mostly Cloudy
9:53 AM 46.9 °F - 39.0 °F 74% 29.60 in 10.0 mi Calm Calm - N/A   Mostly Cloudy
10:27 AM 50.0 °F - 39.9 °F 68% 29.66 in 10.0 mi Variable 4.6 mph - N/A   Mostly Cloudy
10:53 AM 50.0 °F - 39.0 °F 66% 29.57 in 10.0 mi Calm Calm - N/A   Mostly Cloudy
11:53 AM 55.0 °F - 39.0 °F 55% 29.53 in 10.0 mi Variable 3.5 mph - N/A   Mostly Cloudy
12:53 PM 55.9 °F - 36.0 °F 47% 29.50 in 10.0 mi Variable 4.6 mph - N/A   Mostly Cloudy
1:53 PM 57.9 °F - 35.1 °F 42% 29.46 in 10.0 mi Calm Calm - N/A   Overcast
2:53 PM 60.1 °F - 33.1 °F 36% 29.43 in 10.0 mi North - - N/A   Scattered Clouds
3:53 PM 61.0 °F - 32.0 °F 34% 29.39 in 10.0 mi West 9.2 mph - N/A   Mostly Cloudy
4:53 PM 62.1 °F - 30.9 °F 31% 29.38 in 10.0 mi NW 6.9 mph - N/A   Mostly Cloudy
5:53 PM 59.0 °F - 30.9 °F 35% 29.39 in 10.0 mi NW 6.9 mph - N/A   Mostly Cloudy
6:06 PM 57.0 °F - 35.1 °F 44% 29.51 in 10.0 mi WSW 21.9 mph 32.2 mph 0.00 in Rain , Thunderstorm Light Thunderstorms and Rain
6:21 PM 54.0 °F - 35.1 °F 49% 29.52 in 10.0 mi WSW 19.6 mph 28.8 mph 0.00 in   Overcast
6:34 PM 54.0 °F - 34.0 °F 47% 29.52 in 10.0 mi SW 24.2 mph 32.2 mph 0.00 in Thunderstorm Mostly Cloudy
6:49 PM 51.8 °F - 35.6 °F 54% 29.53 in 10.0 mi SW 21.9 mph 33.4 mph 0.00 in   Mostly Cloudy
6:53 PM 51.1 °F - 35.1 °F 54% 29.46 in 10.0 mi SW 24.2 mph 34.5 mph 0.00 in   Overcast
7:53 PM 48.9 °F - 37.9 °F 66% 29.48 in 10.0 mi NNE 9.2 mph - 0.00 in Rain Light Rain
8:53 PM 48.0 °F - 37.9 °F 68% 29.49 in 10.0 mi Calm Calm - 0.00 in   Overcast
9:53 PM 46.9 °F - 39.0 °F 74% 29.52 in 10.0 mi ESE 8.1 mph - N/A   Overcast
10:53 PM 44.1 °F 40.1 °F 39.0 °F 82% 29.52 in 10.0 mi East 6.9 mph - N/A   Partly Cloudy
11:53 PM 45.0 °F 41.2 °F 37.9 °F 76% 29.51 in 10.0 mi ESE 6.9 mph - N/A   Mostly Cloudy